EW6500 Weather Reports


time (UTC)temp
C
wind
direction
speed
KPH
gust
KPH
rain 1hr
cm
rain 24hr
cm
rain mn
cm
humidity
%
barometer
mb
20260506180050 10 143 0.0 6.4 0.00 0.00 0.00 87 1031.8
20260506174557 11 144 0.0 3.2 0.00 0.00 0.00 87 1031.7
20260506173101 11 144 0.0 3.2 0.00 0.00 0.00 86 1031.7
20260506171549 10 144 1.6 4.8 0.00 0.00 0.00 86 1031.8
20260506170047 10 144 0.0 3.2 0.00 0.00 0.00 86 1031.8
20260506164544 11 144 0.0 1.6 0.00 0.00 0.00 85 1031.7
20260506163049 11 144 0.0 3.2 0.00 0.00 0.00 84 1031.8
20260506161541 11 144 0.0 1.6 0.00 0.00 0.00 84 1032.0
20260506160040 11 144 0.0 1.6 0.00 0.00 0.00 83 1032.0
20260506154539 11 144 0.0 1.6 0.00 0.00 0.00 82 1031.9
20260506153043 11 144 0.0 3.2 0.00 0.00 0.00 81 1031.9
20260506151537 11 144 0.0 3.2 0.00 0.00 0.00 80 1031.9
20260506150045 12 145 0.0 3.2 0.00 0.00 0.00 79 1032.0
20260506144555 12 144 0.0 3.2 0.00 0.00 0.00 78 1032.0
20260506143043 12 144 0.0 6.4 0.00 0.00 0.00 77 1032.0
20260506141534 12 63 1.6 12.9 0.00 0.00 0.00 77 1032.0
20260506140053 12 112 1.6 6.4 0.00 0.00 0.00 76 1031.9
20260506134535 12 360 1.6 4.8 0.00 0.00 0.00 76 1031.8
20260506133034 13 351 0.0 6.4 0.00 0.00 0.00 76 1031.7
20260506131541 13 90 1.6 4.8 0.00 0.00 0.00 76 1031.5
20260506130036 13 5 1.6 6.4 0.00 0.00 0.00 75 1031.5
20260506124533 13 82 1.6 6.4 0.00 0.00 0.00 75 1031.4
20260506123038 13 75 1.6 8.0 0.00 0.00 0.00 75 1031.3
20260506121530 13 58 0.0 4.8 0.00 0.00 0.00 75 1031.2
20260506120033 13 91 1.6 3.2 0.00 0.00 0.00 75 1031.2
20260506114528 13 91 0.0 3.2 0.00 0.00 0.00 73 1031.0
20260506113034 13 92 0.0 4.8 0.00 0.00 0.00 72 1030.9
20260506111527 13 92 0.0 3.2 0.00 0.00 0.00 72 1030.6
20260506110037 13 92 0.0 3.2 0.00 0.00 0.00 71 1030.6
20260506104528 14 92 0.0 3.2 0.00 0.00 0.00 69 1030.5
20260506103026 15 92 0.0 3.2 0.00 0.00 0.00 68 1030.5
20260506101532 15 92 0.0 1.6 0.00 0.00 0.00 66 1030.4
20260506100024 16 92 0.0 0.0 0.00 0.00 0.00 64 1030.3
20260506094527 17 92 0.0 3.2 0.00 0.00 0.00 62 1030.2
20260506093031 18 94 0.0 3.2 0.00 0.00 0.00 59 1030.2
20260506091522 19 102 0.0 1.6 0.00 0.00 0.00 57 1030.1
20260506090022 20 102 0.0 4.8 0.00 0.00 0.00 54 1030.0
20260506084522 20 225 1.6 6.4 0.00 0.00 0.00 55 1029.8
20260506083028 20 109 1.6 9.7 0.00 0.00 0.00 54 1029.8
20260506081520 20 20 1.6 4.8 0.00 0.00 0.00 55 1029.7
20260506073016 20 117 3.2 9.7 0.00 0.00 0.00 53 1029.5
20260506071517 20 67 0.0 9.7 0.00 0.00 0.00 54 1029.5
20260506061509 20 68 3.2 8.0 0.00 0.00 0.00 56 1029.6
20260506044555 18 76 1.6 11.3 0.00 0.00 0.00 63 1030.1
20260506043056 18 294 1.6 12.9 0.00 0.00 0.00 64 1030.3
20260506041550 18 69 3.2 16.1 0.00 0.00 0.00 64 1030.5
20260506040048 18 335 3.2 14.5 0.00 0.00 0.00 67 1030.8
20260506034605 17 70 1.6 8.0 0.00 0.00 0.00 66 1030.8
20260506033044 17 42 3.2 6.4 0.00 0.00 0.00 66 1031.1
20260506031549 16 54 3.2 14.5 0.00 0.00 0.00 68 1031.4
20260506030039 16 122 1.6 14.5 0.00 0.00 0.00 69 1031.4
20260506024536 16 36 3.2 14.5 0.00 0.00 0.00 69 1031.5
20260506023034 15 87 4.8 17.7 0.00 0.00 0.00 72 1031.6
20260506021529 15 79 3.2 14.5 0.00 0.00 0.00 76 1031.7
20260506020027 13 69 1.6 8.0 0.00 0.00 0.00 83 1031.9
20260506014523 12 300 0.0 4.8 0.00 0.00 0.00 89 1032.0
20260506013021 11 298 1.6 6.4 0.00 0.00 0.00 94 1032.0
20260506011518 10 238 1.6 3.2 0.00 0.00 0.00 94 1032.1
20260506010029 9 238 0.0 3.2 0.00 0.00 0.00 95 1032.1
20260506004508 8 238 1.6 4.8 0.00 0.00 0.00 94 1031.9
20260506003008 8 238 0.0 0.0 0.00 0.00 0.00 94 1032.0
20260506001506 7 238 0.0 0.0 0.00 0.00 0.00 94 1031.9
20260506000005 7 238 0.0 0.0 0.00 0.00 0.00 94 1031.8
20260505234504 6 238 0.0 0.0 0.00 0.00 0.00 93 1031.7
20260505233008 6 238 0.0 0.0 0.00 0.00 0.00 93 1031.5
20260505231601 6 238 0.0 0.0 0.00 0.00 0.00 93 1031.3
20260505230100 6 238 0.0 1.6 0.00 0.00 0.00 93 1031.2
20260505224557 6 237 0.0 0.0 0.00 0.00 0.00 93 1031.0
20260505223056 6 237 0.0 1.6 0.00 0.00 0.00 92 1030.8
20260505221555 6 237 0.0 0.0 0.00 0.00 0.00 92 1030.7
20260505220051 6 237 0.0 0.0 0.00 0.00 0.00 92 1030.6
20260505214601 7 237 0.0 0.0 0.00 0.00 0.00 92 1030.5
20260505213047 7 237 0.0 1.6 0.00 0.00 0.00 92 1030.3
20260505211547 7 237 0.0 0.0 0.00 0.00 0.00 92 1030.1
20260505210044 7 237 0.0 0.0 0.00 0.00 0.00 92 1029.9
20260505204540 7 237 0.0 0.0 0.00 0.00 0.00 92 1029.8
20260505203040 7 237 0.0 0.0 0.00 0.00 0.00 91 1029.8
20260505201548 7 237 0.0 0.0 0.00 0.00 0.00 92 1029.7
20260505200035 7 237 0.0 0.0 0.00 0.00 0.00 91 1029.6
20260505194535 7 237 0.0 0.0 0.00 0.00 0.00 91 1029.5
20260505193032 8 237 0.0 0.0 0.00 0.00 0.00 92 1029.5
20260505191532 8 237 0.0 0.0 0.00 0.00 0.00 91 1029.5
20260505190038 8 237 0.0 0.0 0.00 0.00 0.00 91 1029.5
20260505184529 8 237 0.0 0.0 0.00 0.00 0.00 90 1029.6
20260505183031 8 237 0.0 0.0 0.00 0.00 0.00 90 1029.5
20260505181532 8 237 0.0 0.0 0.00 0.00 0.00 90 1029.5